• In Italy
  • List of Countries
  • For 7 days
  • Water Temperature
  • Satellite Maps
  • Weather Map
  • Weather Widgets
  • user-avatar
    Login

    Hourly Weather Mumbai

    Today, 24 September, Sunday

    Time Temperature Precipitation Wind Pressure Humidity
    00:00 +27°C° 0 mm 1 mps 757 mmHg 89%
    01:00 +27°C° 0 mm 1 mps 757 mmHg 90%
    02:00 +24°C° 0 mm 0 mps 757 mmHg 91%
    03:00 +26°C° 0 mm 1 mps 757 mmHg 91%
    04:00 +26°C° 0 mm 1 mps 757 mmHg 92%
    05:00 +26°C° 0 mm 1 mps 757 mmHg 92%
    06:00 +27°C° 0 mm 1 mps 757 mmHg 89%
    07:00 +28°C° 0 mm 1 mps 757 mmHg 86%
    08:00 +29°C° 0 mm 1 mps 758 mmHg 83%
    09:00 +30°C° 0 mm 1 mps 758 mmHg 79%
    10:00 +31°C° 0 mm 2 mps 758 mmHg 75%
    11:00 +32°C° 0 mm 2 mps 758 mmHg 72%
    12:00 +32°C° 0.1 mm 2 mps 757 mmHg 72%
    13:00 +33°C° 0.1 mm 3 mps 757 mmHg 72%
    14:00 +33°C° 0.1 mm 3 mps 756 mmHg 72%
    15:00 +33°C° 0.3 mm 4 mps 756 mmHg 76%
    16:00 +32°C° 0.3 mm 4 mps 756 mmHg 80%
    17:00 +30°C° 0 mm 4 mps 756 mmHg 84%
    18:00 +29°C° 0 mm 4 mps 756 mmHg 86%
    19:00 +29°C° 0 mm 3 mps 757 mmHg 88%
    20:00 +28°C° 0 mm 3 mps 757 mmHg 90%
    21:00 +28°C° 0 mm 3 mps 757 mmHg 90%
    22:00 +28°C° 0 mm 3 mps 757 mmHg 91%
    23:00 +27°C° 0 mm 3 mps 757 mmHg 91%

    Tomorrow, 25 September, Monday

    Time Temperature Precipitation Wind Pressure Humidity
    00:00 +27°C° 0 mm 2 mps 757 mmHg 92%
    01:00 +27°C° 0 mm 2 mps 756 mmHg 92%
    02:00 +27°C° 0 mm 2 mps 756 mmHg 92%
    03:00 +27°C° 0 mm 2 mps 756 mmHg 93%
    04:00 +26°C° 0 mm 2 mps 756 mmHg 93%
    05:00 +26°C° 0 mm 2 mps 756 mmHg 94%
    06:00 +27°C° 0 mm 2 mps 756 mmHg 91%
    07:00 +28°C° 0 mm 2 mps 757 mmHg 88%
    08:00 +29°C° 0 mm 2 mps 757 mmHg 85%
    09:00 +30°C° 0 mm 2 mps 757 mmHg 80%
    10:00 +31°C° 0 mm 2 mps 757 mmHg 76%
    11:00 +33°C° 0 mm 3 mps 757 mmHg 71%
    12:00 +33°C° 0 mm 3 mps 756 mmHg 70%
    13:00 +34°C° 0 mm 4 mps 755 mmHg 70%
    14:00 +34°C° 0 mm 4 mps 755 mmHg 69%
    15:00 +33°C° 0 mm 4 mps 755 mmHg 73%
    16:00 +32°C° 0 mm 4 mps 755 mmHg 78%
    17:00 +30°C° 0 mm 4 mps 755 mmHg 82%
    18:00 +29°C° 0.1 mm 4 mps 755 mmHg 85%
    19:00 +29°C° 0.1 mm 4 mps 756 mmHg 88%
    20:00 +28°C° 0.1 mm 3 mps 756 mmHg 90%
    21:00 +28°C° 0.1 mm 3 mps 756 mmHg 91%
    22:00 +27°C° 0.1 mm 3 mps 756 mmHg 92%
    23:00 +27°C° 0.1 mm 3 mps 756 mmHg 92%

    Day after tomorrow, 26 September, Tuesday

    Time Temperature Precipitation Wind Pressure Humidity
    00:00 +27°C° 0 mm 2 mps 756 mmHg 92%
    01:00 +27°C° 0 mm 2 mps 756 mmHg 93%
    02:00 +27°C° 0 mm 2 mps 755 mmHg 93%
    03:00 +27°C° 0 mm 2 mps 755 mmHg 93%
    04:00 +26°C° 0 mm 2 mps 755 mmHg 93%
    05:00 +26°C° 0 mm 2 mps 755 mmHg 94%
    06:00 +27°C° 0 mm 1 mps 756 mmHg 91%
    07:00 +28°C° 0 mm 1 mps 756 mmHg 88%
    08:00 +29°C° 0 mm 1 mps 757 mmHg 85%
    09:00 +30°C° 0 mm 2 mps 757 mmHg 80%
    10:00 +31°C° 0 mm 2 mps 757 mmHg 74%
    11:00 +32°C° 0 mm 2 mps 757 mmHg 69%
    12:00 +34°C° 0 mm 3 mps 756 mmHg 69%
    13:00 +34°C° 0 mm 3 mps 755 mmHg 69%
    14:00 +34°C° 0 mm 4 mps 755 mmHg 68%
    15:00 +33°C° 0.1 mm 4 mps 755 mmHg 73%
    16:00 +32°C° 0.1 mm 4 mps 755 mmHg 77%
    17:00 +32°C° 0.1 mm 4 mps 755 mmHg 81%
    18:00 +30°C° 0.2 mm 4 mps 755 mmHg 84%
    19:00 +29°C° 0.2 mm 3 mps 756 mmHg 86%
    20:00 +28°C° 0.2 mm 3 mps 756 mmHg 89%
    21:00 +28°C° 0.1 mm 3 mps 756 mmHg 90%
    22:00 +28°C° 0.1 mm 3 mps 756 mmHg 91%
    23:00 +27°C° 0.1 mm 3 mps 757 mmHg 91%

    27 September, Wednesday

    Time Temperature Precipitation Wind Pressure Humidity
    00:00 +27°C° 0.1 mm 3 mps 756 mmHg 92%
    01:00 +27°C° 0.1 mm 3 mps 756 mmHg 92%
    02:00 +27°C° 0.1 mm 3 mps 755 mmHg 93%
    03:00 +27°C° 0 mm 3 mps 755 mmHg 93%
    04:00 +27°C° 0 mm 2 mps 755 mmHg 93%
    05:00 +27°C° 0 mm 2 mps 755 mmHg 94%
    06:00 +27°C° 0 mm 2 mps 756 mmHg 91%
    07:00 +28°C° 0 mm 2 mps 756 mmHg 88%
    08:00 +29°C° 0 mm 2 mps 757 mmHg 84%
    09:00 +30°C° 0.1 mm 3 mps 757 mmHg 80%
    10:00 +31°C° 0.1 mm 3 mps 757 mmHg 76%
    11:00 +34°C° 0.1 mm 3 mps 757 mmHg 72%
    12:00 +34°C° 0.1 mm 4 mps 756 mmHg 71%
    13:00 +34°C° 0.1 mm 4 mps 755 mmHg 71%
    14:00 +34°C° 0.1 mm 5 mps 755 mmHg 70%
    15:00 +34°C° 0.2 mm 5 mps 755 mmHg 74%
    16:00 +33°C° 0.2 mm 5 mps 755 mmHg 78%
    17:00 +32°C° 0.2 mm 5 mps 755 mmHg 82%
    18:00 +30°C° 0.5 mm 4 mps 755 mmHg 85%
    19:00 +29°C° 0.5 mm 4 mps 756 mmHg 87%
    20:00 +28°C° 0.5 mm 3 mps 756 mmHg 89%
    21:00 +28°C° 0.1 mm 3 mps 756 mmHg 90%
    22:00 +28°C° 0.1 mm 3 mps 756 mmHg 91%
    23:00 +28°C° 0.1 mm 3 mps 756 mmHg 91%

    28 September, Thursday

    Time Temperature Precipitation Wind Pressure Humidity
    00:00 +28°C° 0.1 mm 3 mps 756 mmHg 92%
    01:00 +27°C° 0.1 mm 3 mps 755 mmHg 93%
    02:00 +27°C° 0.1 mm 3 mps 755 mmHg 94%
    03:00 +27°C° 0.9 mm 3 mps 755 mmHg 94%
    04:00 +27°C° 0.9 mm 3 mps 754 mmHg 95%
    05:00 +27°C° 0.9 mm 3 mps 754 mmHg 95%
    06:00 +28°C° 0.3 mm 3 mps 755 mmHg 93%
    07:00 +28°C° 0.3 mm 3 mps 756 mmHg 90%
    08:00 +29°C° 0.3 mm 3 mps 756 mmHg 88%
    09:00 +30°C° 0.1 mm 3 mps 756 mmHg 82%
    10:00 +33°C° 0.1 mm 3 mps 756 mmHg 77%
    11:00 +34°C° 0.1 mm 3 mps 756 mmHg 71%
    12:00 +34°C° 0.5 mm 4 mps 755 mmHg 72%
    13:00 +34°C° 0.5 mm 4 mps 754 mmHg 73%
    14:00 +34°C° 0.5 mm 5 mps 754 mmHg 74%
    15:00 +33°C° 0.6 mm 5 mps 754 mmHg 78%
    16:00 +32°C° 0.6 mm 5 mps 754 mmHg 82%
    17:00 +32°C° 0.6 mm 5 mps 754 mmHg 86%
    18:00 +30°C° 0.3 mm 4 mps 755 mmHg 88%
    19:00 +29°C° 0.3 mm 4 mps 755 mmHg 90%
    20:00 +28°C° 0.3 mm 4 mps 756 mmHg 92%
    21:00 +28°C° 0.3 mm 4 mps 756 mmHg 92%
    22:00 +28°C° 0.3 mm 4 mps 756 mmHg 93%
    23:00 +28°C° 0.3 mm 4 mps 756 mmHg 94%

    29 September, Friday

    Time Temperature Precipitation Wind Pressure Humidity
    00:00 +28°C° 1.1 mm 3 mps 755 mmHg 94%
    01:00 +28°C° 1.1 mm 3 mps 755 mmHg 94%
    02:00 +28°C° 1.1 mm 3 mps 754 mmHg 94%
    03:00 +27°C° 1.3 mm 3 mps 754 mmHg 94%
    04:00 +27°C° 1.3 mm 3 mps 754 mmHg 93%
    05:00 +27°C° 1.3 mm 3 mps 754 mmHg 93%
    06:00 +28°C° 0.5 mm 3 mps 755 mmHg 91%
    07:00 +29°C° 0.5 mm 3 mps 755 mmHg 89%
    08:00 +29°C° 0.5 mm 2 mps 756 mmHg 87%
    09:00 +30°C° 0.1 mm 3 mps 756 mmHg 82%
    10:00 +33°C° 0.1 mm 3 mps 756 mmHg 77%
    11:00 +34°C° 0.1 mm 3 mps 756 mmHg 71%
    12:00 +34°C° 0.1 mm 4 mps 755 mmHg 70%
    13:00 +34°C° 0.1 mm 4 mps 754 mmHg 70%
    14:00 +35°C° 0.1 mm 5 mps 753 mmHg 69%
    15:00 +34°C° 0.2 mm 5 mps 753 mmHg 73%
    16:00 +33°C° 0.2 mm 5 mps 754 mmHg 77%
    17:00 +32°C° 0.2 mm 5 mps 754 mmHg 81%
    18:00 +30°C° 0.2 mm 4 mps 754 mmHg 83%
    19:00 +29°C° 0.2 mm 4 mps 755 mmHg 86%
    20:00 +29°C° 0.2 mm 4 mps 755 mmHg 88%
    21:00 +28°C° 0 mm 3 mps 755 mmHg 89%
    22:00 +28°C° 0 mm 3 mps 755 mmHg 90%
    23:00 +28°C° 0 mm 3 mps 756 mmHg 90%
    Show more